Temp
47 40 36 41 44 45 42 39 37 44 48 45 43 43 49 51 53 52 55 56 58 58 62 62 61 62 61 61 60 58 56 54 53 51 47 47 48 49 49 49 53 53 54 54
41 37 45 48 47 45 43 39 38 45 46 44 43 43 49 51 52 57 56 56 57 57 58 59 60 61 62 60 60 57 57 54 54 53 49 50 48 49 49 50 51 53 53 53
38 44 49 49 46 44 42 40 39 41 44 44 40 38 43 50 51 57 53 58 57 60 58 57 58 60 61 59 58 57 56 54 53 53 51 49 48 47 47 47 48 51 53 53
41 48 46 44 44 47 40 46 46 44 39 32 40 28 39 49 51 51 53 54 56 56 57 60 58 56 59 58 58 58 55 54 53 52 50 51 47 45 46 46 48 49 52 52
37 41 42 40 43 48 43 48 46 43 38 35 34 31 38 42 47 52 54 52 53 54 55 58 57 59 54 56 57 56 54 53 52 51 50 49 47 47 47 47 48 48 50 52
41 46 45 44 48 49 48 44 43 40 35 20 33 36 34 44 51 52 53 55 54 53 52 53 53 54 53 53 54 53 53 52 52 51 50 49 48 47 46 46 46 47 48 49
38 40 44 48 42 44 43 37 20 20 20 23 35 33 37 47 54 54 55 55 53 51 51 50 51 52 51 51 51 52 52 50 51 50 50 49 49 48 48 47 46 46 47 47
30 23 39 44 41 37 38 38 26 21 21 26 33 30 39 50 54 54 56 56 51 48 48 47 50 51 51 50 50 52 51 50 50 49 48 49 49 49 49 48 47 47 48 48
29 30 42 47 45 45 35 32 40 27 19 23 30 36 45 49 52 51 50 50 48 48 47 47 47 47 49 49 49 50 49 50 50 49 48 48 48 48 48 49 49 48 48 50
37 26 37 42 45 43 40 45 32 26 17 19 27 30 39 43 48 49 47 49 48 48 46 46 48 48 49 49 48 49 51 50 49 49 49 48 48 49 49 48 48 48 48 49
39 34 30 38 34 36 35 35 36 36 30 24 19 31 43 51 52 51 51 49 48 48 48 48 48 48 49 49 50 49 50 49 49 49 47 47 47 48 48 48 48 48 48 49
43 34 23 32 38 45 46 39 41 33 23 27 28 35 49 50 51 51 50 49 46 47 47 47 47 48 48 48 49 49 50 50 50 49 48 48 48 47 47 48 48 48 48 49
44 31 19 27 34 37 37 40 45 39 32 31 28 32 47 46 47 46 48 47 46 46 46 46 46 47 48 48 49 49 49 50 49 49 48 47 47 47 47 47 48 48 48 48
46 36 33 29 34 35 30 36 39 39 24 32 36 33 40 42 45 44 44 44 44 45 46 47 47 47 48 48 49 49 49 49 49 48 48 47 46 47 47 47 47 47 48 48
41 31 34 37 36 39 36 33 36 30 39 30 41 31 43 44 45 44 45 43 43 41 42 44 45 46 47 48 48 49 49 48 48 48 47 46 46 47 46 46 46 47 47 48
38 30 32 31 36 37 31 36 35 36 37 36 40 38 46 50 47 45 46 44 43 42 40 41 44 44 46 46 47 49 47 47 48 47 46 47 46 46 46 46 46 46 46 47
29 27 29 26 31 32 28 33 34 37 40 40 32 43 46 48 49 48 47 45 45 45 44 43 45 45 46 46 48 48 48 47 47 46 45 46 46 46 45 45 45 45 45 46
27 27 27 25 25 20 32 44 42 38 41 43 43 46 49 49 51 50 51 49 47 46 45 44 45 45 43 45 46 46 47 46 45 44 45 45 44 44 43 43 45 44 45 45
32 27 24 21 13 27 33 35 38 36 37 44 42 46 48 50 46 51 50 49 50 47 48 48 48 48 45 45 46 46 44 44 43 43 44 44 45 43 43 43 43 44 43 44
32 31 24 20 15 16 32 37 43 44 31 47 48 48 48 45 40 48 50 51 50 49 48 45 44 44 45 45 45 44 43 42 43 43 44 43 43 43 43 42 42 41 43 42
18 22 20 20 19 24 35 39 43 24 32 42 49 50 50 45 50 52 51 51 51 51 46 43 43 44 46 43 45 43 41 42 41 39 38 40 42 43 44 43 40 41 39 39
17 17 20 14 16 15 37 36 33 39 41 39 40 42 45 45 50 53 51 51 48 44 41 41 41 40 41 41 43 40 40 40 38 39 38 37 37 39 40 39 37 37 38 37
19 26 23 25 24 36 42 41 45 45 46 42 40 40 40 41 43 46 48 50 45 42 40 38 39 35 35 38 42 38 37 36 36 37 36 36 35 35 35 36 36 36 36 37
27 31 24 23 31 32 41 38 40 41 41 39 41 40 40 40 41 41 42 45 44 37 36 36 34 34 32 35 35 36 34 36 36 35 34 34 35 34 34 35 36 36 36 35
30 28 24 29 34 32 36 37 39 39 39 38 40 43 40 39 40 40 41 38 39 37 33 34 35 34 32 31 32 34 35 36 35 35 34 34 35 35 34 34 35 35 35 37
30 29 27 27 34 36 40 39 38 37 37 38 37 37 37 38 37 37 38 35 33 32 31 31 30 31 31 32 33 33 34 36 35 34 34 35 35 35 35 35 34 37 37 38
MSLP
1014.51 1014.88 1014.31 1014.05 1013.92 1013.88 1013.99 1014.11 1013.93 1012.92 1012.56 1012.71 1012.87 1012.43 1011.76 1011.00 1010.47 1009.98 1009.61 1009.54 1009.09 1008.99 1008.75 1009.14 1009.74 1010.25 1010.94 1011.81 1012.74 1013.60 1014.53 1015.43 1016.19 1017.00 1017.75 1018.33 1018.55 1018.69 1018.90 1018.95 1018.75 1018.94 1019.09 1019.14
1014.62 1013.58 1013.81 1013.84 1014.01 1014.11 1014.18 1014.12 1013.80 1013.23 1012.92 1013.05 1012.73 1012.31 1011.11 1010.35 1009.63 1008.72 1008.73 1008.73 1008.52 1008.56 1008.56 1008.96 1009.43 1010.13 1010.67 1011.54 1012.28 1013.25 1014.08 1015.15 1015.87 1016.51 1017.20 1017.61 1018.04 1018.52 1018.70 1018.85 1018.82 1018.97 1019.17 1019.34
1013.46 1012.75 1012.45 1013.19 1013.39 1013.64 1013.56 1013.69 1013.73 1013.62 1013.33 1013.05 1012.97 1011.94 1010.54 1008.96 1008.29 1007.91 1007.74 1007.49 1007.65 1007.65 1008.06 1008.49 1009.12 1009.64 1010.39 1011.26 1012.15 1013.02 1013.83 1014.71 1015.56 1016.30 1017.11 1017.61 1018.09 1018.55 1018.93 1019.01 1018.98 1019.01 1019.13 1019.40
1013.23 1012.17 1012.37 1012.73 1012.74 1012.96 1013.09 1012.85 1013.35 1013.78 1014.15 1014.34 1013.56 1012.64 1010.72 1008.69 1007.85 1007.23 1006.60 1006.83 1006.75 1007.21 1007.51 1007.97 1008.48 1009.32 1009.94 1010.81 1011.78 1012.69 1013.77 1014.62 1015.35 1015.91 1016.59 1017.17 1017.64 1018.46 1018.67 1018.79 1018.88 1019.07 1019.10 1019.38
1011.66 1011.43 1012.02 1011.98 1011.58 1012.24 1012.44 1012.40 1013.22 1013.96 1014.63 1014.84 1014.24 1014.08 1010.25 1008.62 1007.60 1006.42 1005.70 1005.76 1005.94 1006.46 1006.78 1007.57 1008.10 1008.64 1009.64 1010.48 1011.47 1012.42 1013.44 1014.45 1015.21 1015.77 1016.15 1016.82 1017.47 1017.86 1018.24 1018.71 1018.93 1019.09 1019.25 1019.38
1011.12 1010.66 1011.05 1010.82 1011.26 1011.73 1012.36 1013.24 1014.09 1014.92 1015.68 1015.63 1014.09 1013.23 1009.93 1008.10 1006.13 1005.37 1004.96 1005.27 1005.67 1006.22 1006.80 1007.47 1008.22 1008.88 1009.74 1010.50 1011.34 1012.32 1013.28 1014.18 1015.08 1015.74 1016.20 1016.55 1017.05 1017.59 1018.27 1018.73 1019.07 1019.24 1019.35 1019.47
1011.19 1010.89 1010.52 1010.36 1011.29 1011.99 1012.46 1013.58 1015.85 1016.65 1016.95 1014.87 1013.29 1012.97 1008.45 1006.70 1005.31 1004.65 1004.53 1004.89 1005.26 1005.98 1006.63 1007.33 1008.29 1009.19 1009.84 1010.52 1011.26 1012.11 1012.97 1014.00 1014.74 1015.48 1016.07 1016.45 1016.69 1017.15 1017.75 1018.36 1018.79 1019.16 1019.34 1019.50
1010.22 1011.21 1009.91 1009.68 1009.88 1010.73 1012.30 1012.97 1014.14 1015.57 1016.13 1014.80 1013.50 1011.04 1007.28 1005.18 1004.09 1004.22 1004.21 1004.45 1005.42 1006.31 1006.99 1007.63 1008.16 1008.72 1009.57 1010.47 1011.28 1011.98 1012.81 1013.69 1014.42 1015.18 1015.76 1016.16 1016.50 1016.87 1017.31 1017.84 1018.35 1018.74 1018.98 1019.15
1009.24 1009.49 1008.94 1008.91 1009.34 1009.86 1012.17 1012.46 1012.89 1014.22 1015.90 1014.84 1012.29 1009.24 1006.82 1005.10 1004.42 1004.13 1004.60 1005.28 1006.28 1006.82 1007.49 1008.02 1008.59 1009.05 1009.59 1010.30 1011.00 1011.72 1012.65 1013.53 1014.20 1014.82 1015.39 1015.92 1016.21 1016.62 1016.99 1017.45 1017.97 1018.41 1018.77 1019.03
1007.75 1008.80 1008.58 1009.24 1009.54 1009.86 1009.76 1011.10 1012.70 1013.77 1014.63 1013.98 1010.99 1008.96 1006.28 1004.89 1004.27 1004.07 1004.79 1005.40 1005.97 1006.47 1007.36 1007.94 1008.48 1008.97 1009.57 1010.13 1010.81 1011.52 1012.25 1013.09 1013.90 1014.57 1015.00 1015.56 1016.01 1016.41 1016.83 1017.27 1017.85 1018.21 1018.58 1018.89
1007.59 1007.89 1009.38 1009.25 1008.51 1008.53 1009.85 1010.16 1010.85 1011.79 1012.56 1011.97 1010.69 1006.98 1004.39 1003.74 1003.31 1003.69 1003.90 1004.54 1005.60 1006.23 1006.88 1007.55 1008.20 1008.86 1009.37 1009.90 1010.54 1011.16 1011.89 1012.63 1013.52 1014.32 1014.91 1015.30 1015.81 1016.29 1016.82 1017.19 1017.70 1018.16 1018.51 1018.85
1006.68 1007.81 1009.03 1008.70 1008.35 1008.34 1008.23 1008.35 1009.09 1009.98 1010.65 1010.36 1009.27 1005.35 1003.27 1003.02 1002.79 1003.05 1003.61 1004.52 1005.36 1006.33 1007.11 1007.69 1008.31 1008.91 1009.74 1010.18 1010.46 1011.00 1011.69 1012.28 1013.02 1013.78 1014.57 1015.18 1015.65 1016.16 1016.74 1017.16 1017.59 1017.94 1018.41 1018.81
1006.06 1007.00 1008.68 1009.23 1009.26 1008.27 1007.50 1008.22 1008.34 1008.59 1009.14 1008.86 1008.54 1004.97 1003.61 1003.31 1003.26 1003.42 1004.13 1004.86 1005.57 1006.46 1007.20 1007.70 1008.37 1008.94 1009.38 1010.05 1010.84 1011.04 1011.49 1012.12 1012.86 1013.56 1014.24 1014.90 1015.47 1016.01 1016.55 1016.99 1017.56 1017.95 1018.31 1018.65
1005.66 1006.23 1006.52 1005.82 1004.97 1007.10 1008.02 1007.70 1008.13 1008.46 1008.76 1007.06 1005.43 1005.16 1004.22 1003.63 1003.62 1004.16 1004.53 1005.18 1005.71 1006.35 1007.03 1007.51 1008.06 1008.65 1009.22 1009.74 1010.27 1011.09 1011.74 1012.18 1012.73 1013.52 1014.06 1014.54 1015.07 1015.69 1016.21 1016.81 1017.39 1017.81 1018.30 1018.57
1006.50 1006.10 1006.57 1006.03 1006.38 1006.11 1006.36 1007.06 1007.35 1007.99 1006.18 1007.47 1002.50 1004.63 1004.07 1003.65 1003.62 1004.27 1004.73 1005.52 1006.20 1006.64 1007.17 1007.52 1007.84 1008.28 1008.83 1009.49 1010.30 1011.13 1011.69 1012.16 1012.77 1013.52 1014.01 1014.36 1014.83 1015.45 1015.95 1016.61 1017.23 1017.60 1018.22 1018.55
1007.17 1006.69 1006.83 1006.12 1006.25 1006.39 1006.25 1006.25 1006.59 1006.54 1005.85 1006.04 1003.45 1003.93 1003.97 1003.44 1003.44 1004.34 1004.66 1005.43 1006.23 1006.58 1006.90 1007.20 1007.51 1007.83 1008.38 1009.07 1009.76 1010.37 1011.26 1012.08 1012.62 1013.20 1013.76 1014.30 1014.71 1015.23 1015.77 1016.51 1017.04 1017.45 1018.05 1018.54
1009.48 1008.05 1007.35 1006.26 1006.17 1005.95 1005.65 1005.23 1005.23 1004.74 1004.38 1004.51 1003.97 1001.28 1003.49 1003.60 1004.08 1003.94 1004.36 1005.10 1005.45 1005.71 1006.28 1006.76 1006.84 1007.24 1007.55 1008.37 1009.18 1009.90 1010.66 1011.53 1012.25 1012.99 1013.61 1014.11 1014.60 1015.18 1015.71 1016.25 1016.88 1017.39 1017.82 1018.29
1009.95 1009.26 1009.16 1007.27 1006.45 1004.93 1003.86 1003.22 1004.25 1004.40 1003.90 1004.12 1002.53 1002.60 1002.80 1003.48 1003.55 1003.52 1003.27 1003.82 1004.39 1005.08 1005.61 1005.92 1006.30 1006.79 1007.21 1007.78 1008.65 1009.46 1010.20 1011.15 1012.06 1012.81 1013.39 1013.99 1014.52 1015.09 1015.70 1016.22 1016.65 1017.24 1017.64 1018.03
1010.07 1010.37 1010.22 1008.75 1007.35 1005.60 1004.21 1003.47 1003.07 1003.26 1002.51 1002.86 1002.74 1002.51 1002.09 1003.20 1003.40 1002.07 1002.74 1003.13 1003.34 1003.84 1004.00 1004.26 1004.75 1005.45 1006.47 1007.08 1007.81 1008.87 1009.92 1010.53 1011.40 1012.32 1013.07 1013.65 1014.15 1014.80 1015.43 1016.01 1016.48 1016.96 1017.51 1017.92
1009.38 1010.00 1010.32 1009.20 1007.38 1005.56 1003.66 1003.15 1003.02 1003.04 1002.17 1002.07 1001.60 1001.25 1001.83 1003.03 1003.53 999.62 1002.11 1002.37 1002.82 1002.95 1003.05 1003.54 1004.14 1005.05 1005.96 1006.65 1007.14 1008.18 1009.25 1010.21 1010.84 1011.38 1012.18 1013.03 1013.86 1014.68 1015.26 1015.72 1016.20 1016.74 1017.17 1017.63
1008.65 1008.64 1008.22 1008.09 1006.61 1004.94 1003.55 1003.10 1003.43 1004.02 1003.12 1002.79 1001.92 1001.00 1001.28 1001.88 1001.19 1001.07 1001.09 1001.62 1001.75 1001.81 1002.25 1002.75 1003.60 1004.18 1004.59 1005.71 1006.64 1007.50 1008.36 1009.14 1009.86 1010.77 1011.64 1012.55 1013.32 1014.17 1014.79 1015.43 1016.09 1016.55 1017.20 1017.74
1007.12 1006.90 1006.71 1007.21 1006.13 1004.27 1002.87 1003.10 1003.52 1002.50 1002.05 1002.99 1002.96 1002.55 1002.08 1002.00 1000.98 1000.37 1000.65 1000.97 1001.35 1001.70 1002.38 1002.95 1003.80 1004.27 1004.78 1005.26 1006.17 1007.36 1007.85 1008.24 1009.39 1010.46 1011.30 1012.25 1013.10 1013.83 1014.74 1015.53 1016.15 1016.74 1017.33 1017.98
1005.56 1005.07 1005.09 1005.23 1004.11 1002.75 1001.18 1001.34 1001.59 1002.20 1002.43 1002.41 1002.91 1002.75 1003.19 1002.67 1001.61 1001.25 1000.93 1000.74 1000.82 1001.41 1001.83 1002.63 1003.43 1004.37 1005.01 1005.33 1005.79 1006.93 1007.70 1008.48 1009.34 1010.41 1011.37 1012.07 1012.89 1013.76 1014.59 1015.54 1016.26 1017.07 1017.45 1018.17
1003.61 1003.28 1003.46 1003.45 1002.36 1001.96 1000.82 1000.91 1000.65 1001.12 1001.39 1002.11 1002.57 1002.22 1002.51 1002.77 1001.98 1001.81 1001.53 1001.08 1000.93 1001.28 1001.86 1002.55 1003.44 1004.36 1005.24 1005.71 1006.07 1006.90 1008.09 1008.81 1009.64 1010.69 1011.75 1012.55 1013.17 1013.90 1014.84 1015.80 1016.22 1016.82 1017.42 1018.16
1001.84 1001.91 1001.88 1001.37 1001.43 1001.53 1000.85 1000.97 1001.09 1001.27 1001.16 1001.20 1001.67 1002.10 1001.64 1001.89 1001.81 1001.97 1001.71 1001.13 1000.84 1001.07 1001.71 1002.34 1003.12 1003.93 1004.94 1005.68 1006.18 1006.80 1007.87 1008.88 1009.91 1011.04 1011.83 1012.69 1013.49 1014.04 1014.88 1015.82 1016.59 1016.57 1017.27 1017.61
1000.33 1000.43 1000.40 1000.14 1000.11 1000.16 999.59 1000.24 1001.03 1001.03 1001.00 1001.37 1001.69 1001.74 1001.29 1001.44 1001.21 1001.71 1001.58 1001.14 1001.09 1001.75 1002.17 1002.67 1003.24 1003.98 1004.97 1005.83 1006.60 1007.38 1007.69 1008.44 1009.48 1010.71 1011.84 1012.57 1013.21 1014.09 1014.81 1015.75 1016.63 1017.02 1017.41 1017.68
Wind_Speed
5 5 11 11 12 5 3 1 2 4 3 4 7 10 11 10 10 10 10 9 9 9 9 9 10 13 14 14 16 15 14 11 10 6 5 3 4 2 2 2 4 4 2 3
4 14 7 8 8 8 7 4 5 6 3 3 5 10 13 12 11 15 14 11 11 6 8 9 12 13 16 15 17 15 15 13 9 7 3 4 4 2 3 2 3 3 3 2
9 5 20 13 8 11 8 8 4 7 4 4 5 8 7 7 10 15 9 13 9 14 11 11 13 15 14 16 16 15 14 14 10 9 4 4 4 4 2 1 2 2 3 2
11 9 9 11 12 9 8 8 8 5 2 5 2 8 8 9 8 6 14 13 13 10 8 14 15 14 17 14 15 15 14 13 10 10 8 11 5 4 4 4 3 3 3 2
11 10 17 9 8 10 5 2 8 4 3 2 2 3 9 4 6 11 13 12 12 11 12 15 16 18 10 13 15 14 14 13 11 10 9 7 6 3 4 3 6 4 3 3
8 4 10 9 6 11 7 7 7 5 3 3 10 9 5 6 11 6 5 9 10 10 8 9 7 10 10 10 13 14 15 13 12 10 8 8 9 7 6 4 4 4 2 2
5 6 4 8 8 4 5 8 3 4 2 9 3 4 7 7 9 7 8 8 7 8 10 13 14 11 11 13 14 14 15 13 12 10 9 8 9 8 9 7 5 5 3 2
14 6 13 6 8 10 7 9 8 9 6 4 3 10 9 15 11 6 9 8 7 7 8 8 10 12 12 13 13 14 14 13 12 9 9 7 8 6 5 6 5 4 4 4
9 9 6 17 6 15 7 10 7 6 2 3 6 8 9 10 11 6 5 5 7 8 9 9 8 8 11 13 14 14 13 12 12 10 8 8 7 8 7 8 6 5 5 4
6 2 9 10 7 6 11 11 5 2 4 5 6 6 9 3 11 6 7 10 9 8 8 9 10 10 10 12 11 12 13 14 13 11 9 8 7 7 7 6 7 7 6 6
3 5 2 8 12 16 7 9 4 6 6 7 2 8 9 17 11 10 11 9 10 11 12 12 10 9 11 11 13 12 13 13 12 11 8 9 7 7 7 6 6 6 6 6
14 3 5 16 2 10 15 10 15 9 7 4 4 10 4 10 9 7 4 7 6 7 8 8 9 10 9 11 12 13 13 14 13 11 10 9 8 7 7 6 7 7 6 6
16 7 3 3 5 4 17 12 20 4 4 13 8 7 1 2 5 3 6 7 7 8 9 8 9 11 11 11 10 11 13 13 12 12 11 9 9 9 8 7 7 7 7 6
10 9 22 19 21 9 9 17 13 14 3 6 22 3 2 5 7 3 4 6 8 9 11 11 11 11 11 11 12 11 10 11 11 11 12 11 11 10 9 7 7 7 6 7
7 11 15 22 8 18 14 15 20 15 28 9 31 12 8 5 6 7 6 4 6 8 9 9 10 10 11 12 10 9 9 10 11 11 11 11 9 9 8 8 7 7 7 6
0 2 6 21 19 19 4 19 20 24 27 19 28 20 6 10 4 4 6 8 8 9 9 9 10 11 12 13 12 12 11 11 12 12 12 10 10 10 9 8 8 7 7 6
3 3 2 13 11 16 19 18 22 23 23 27 17 28 5 15 9 7 8 10 11 12 11 12 14 14 14 14 14 14 13 12 12 11 9 10 10 10 9 9 9 8 8 6
7 6 5 4 1 15 6 19 17 17 18 20 25 18 16 11 12 10 10 8 11 9 10 10 9 10 10 10 12 10 12 13 11 10 10 10 9 9 9 9 9 7 7 7
13 6 6 5 4 6 7 3 17 20 24 21 19 21 22 16 8 21 7 6 10 11 13 15 15 13 12 15 13 14 12 13 12 12 11 11 12 11 10 10 9 7 6 5
15 17 11 4 5 7 6 3 8 1 22 22 24 25 21 7 10 24 7 7 10 11 9 11 12 10 12 13 15 16 15 14 15 14 13 11 10 11 11 10 9 5 5 6
5 7 16 15 10 5 9 6 3 1 2 7 18 23 21 12 18 8 7 9 9 11 12 8 13 16 17 14 16 17 15 17 12 9 10 11 12 12 10 9 5 7 6 6
8 7 9 5 11 21 6 4 16 7 9 4 5 9 13 6 12 17 12 11 10 11 10 11 11 11 10 14 16 14 17 12 11 12 11 10 9 7 7 9 6 7 8 7
17 13 12 10 6 7 15 19 15 10 17 12 4 4 3 8 7 9 8 13 12 12 12 10 12 10 8 13 15 15 10 12 12 12 11 10 9 7 7 9 8 6 7 6
11 9 7 6 9 6 18 7 8 9 12 7 6 7 7 7 8 9 10 9 9 8 10 10 11 12 11 10 8 8 11 11 13 13 11 9 10 9 8 5 5 7 6 6
12 9 9 10 14 2 15 10 13 10 8 8 8 9 8 7 10 7 12 9 9 11 9 12 13 12 11 9 10 14 14 14 14 13 11 10 9 10 9 6 4 5 3 6
6 9 9 10 7 15 24 11 10 11 13 11 7 7 7 8 8 7 12 6 5 7 6 8 9 12 12 11 12 12 14 16 16 14 11 10 9 9 9 9 7 10 10 11
Wind_Direction
203 165 200 198 197 206 115 85 324 286 225 162 219 260 267 269 278 240 249 237 230 212 209 191 174 160 153 153 154 156 154 154 143 141 129 119 147 146 111 132 122 120 83 35
148 227 194 195 202 221 259 276 274 287 193 219 253 262 262 250 240 239 224 229 227 216 193 182 165 165 166 161 161 159 161 156 155 150 143 153 147 164 146 156 127 131 110 49
191 211 184 197 192 208 216 218 223 223 332 287 335 286 274 276 244 252 232 227 218 212 195 180 171 172 164 164 166 163 160 157 156 148 124 93 81 74 94 160 140 160 133 104
233 226 156 192 218 189 226 194 210 224 99 239 74 285 301 273 269 230 238 219 223 205 193 184 173 169 171 166 159 156 157 158 158 154 146 154 148 153 188 171 157 158 146 134
224 176 202 204 189 181 207 168 191 180 173 353 244 261 266 262 255 241 238 222 221 206 186 183 184 172 158 151 160 154 153 157 158 161 156 151 147 161 138 141 143 145 150 149
192 176 176 188 170 176 139 86 52 53 85 299 199 190 239 219 227 250 247 229 223 200 180 167 156 148 146 141 145 150 154 157 158 164 160 160 155 147 140 144 147 153 163 164
153 195 184 148 119 110 133 114 23 2 348 233 168 186 244 252 251 217 245 236 220 185 162 160 159 163 157 156 154 154 156 158 161 163 168 166 157 152 154 157 160 155 160 166
177 207 170 180 166 158 163 163 161 196 206 246 80 235 257 230 252 240 226 211 169 160 154 164 164 160 157 155 154 155 158 156 160 161 168 162 159 155 157 161 158 166 168 165
166 231 156 173 149 141 203 210 164 105 22 57 222 281 296 253 265 234 182 116 153 169 168 165 157 151 148 152 157 154 155 159 165 164 158 163 162 158 164 165 159 163 154 154
193 130 193 178 110 245 175 141 161 4 154 243 269 250 228 200 238 233 196 205 198 183 170 165 167 159 157 154 150 150 157 163 167 166 163 162 162 159 155 145 149 148 146 144
187 130 296 131 212 173 145 182 179 135 175 180 242 258 214 217 214 216 225 208 192 185 177 170 167 163 161 155 161 159 160 159 163 164 162 156 157 154 148 145 148 151 143 151
202 144 152 203 270 197 208 187 178 178 216 222 173 241 243 222 219 208 219 188 180 170 165 159 156 152 161 167 166 169 168 167 168 163 161 162 153 147 148 151 155 150 155 157
197 201 110 97 326 246 212 210 199 119 93 206 185 248 335 135 100 127 140 162 159 153 152 147 149 165 168 167 180 174 170 169 164 161 160 157 158 155 158 159 159 153 152 157
172 205 214 213 216 122 193 195 204 215 155 183 230 180 343 163 154 180 147 175 170 168 169 168 164 170 172 172 172 177 174 168 163 162 164 165 166 165 161 156 157 153 159 154
238 216 228 232 217 189 196 197 202 206 230 187 242 179 230 212 205 207 203 158 155 179 180 182 174 168 170 171 171 176 169 165 163 166 170 173 164 159 154 155 159 152 156 161
94 255 206 240 230 225 182 203 197 206 225 236 246 258 172 276 260 187 185 177 198 204 209 195 183 171 175 175 176 169 169 172 170 172 176 170 163 161 161 157 159 153 158 161
294 317 297 251 206 214 225 208 200 215 222 219 231 238 204 222 238 262 218 202 207 206 198 201 198 188 179 178 175 180 175 166 175 175 171 168 165 164 163 158 156 163 164 156
271 330 315 304 144 229 234 202 198 219 233 226 248 242 244 246 251 242 248 215 221 187 204 208 193 187 180 168 172 163 163 169 169 170 167 165 162 162 159 157 163 160 164 168
201 227 266 242 234 343 282 212 196 196 232 232 244 248 244 239 320 274 236 225 222 200 201 204 198 190 173 172 165 159 162 164 164 170 169 169 170 165 165 168 166 163 153 166
201 205 226 266 218 216 215 172 85 321 241 228 234 244 242 159 217 254 168 201 220 215 205 188 182 171 173 178 162 162 168 172 181 174 170 164 161 165 173 171 164 155 156 158
178 195 225 237 247 223 244 249 323 178 301 342 265 247 245 209 226 253 206 223 217 218 208 167 165 180 187 167 167 173 168 186 173 154 150 154 161 167 171 161 154 148 141 136
175 180 207 218 233 247 238 237 215 230 254 108 319 344 310 328 250 238 227 227 222 201 167 170 170 179 171 165 166 171 183 167 155 154 151 151 147 145 149 150 139 137 138 137
229 213 224 202 204 189 247 246 227 211 250 232 187 269 313 291 292 312 258 227 210 196 174 168 168 162 169 171 175 175 172 150 147 147 150 147 135 136 135 142 140 130 132 147
224 190 196 206 229 238 259 238 164 173 206 188 222 223 186 258 283 290 276 260 219 183 172 163 149 163 169 175 154 146 143 141 138 138 142 139 136 125 112 113 128 144 144 148
213 159 197 234 234 252 243 212 197 211 206 195 197 236 209 202 268 249 284 262 219 190 163 163 170 168 165 148 140 145 146 144 140 141 139 137 134 132 126 113 142 130 113 155
177 200 207 230 218 213 232 215 188 192 204 207 216 241 242 213 230 260 274 228 177 166 149 150 147 146 145 142 144 153 153 150 145 141 145 147 139 132 132 126 117 91 107 118